Regional Weather Roundup
Issued by NWS

Home | Current Version | Previous Version | Text Only | Print | Product List | Glossary Off
Versions: 1 2 3 4 5 6 7 8 9 10 11 12 13 14 15 16 17 18 19 20 21 22 23 24 25 26 27 28 29 30 31 32 33 34 35 36 37 38 39 40 41 42 43 44 45 46 47 48

000
ASUS45 KCYS 181010
RWRWY

WYOMING REGIONAL WEATHER ROUNDUP
NATIONAL WEATHER SERVICE CHEYENNE WY
400 AM MDT SAT APR 18 2015

NOTE:  "FAIR" INDICATES FEW OR NO CLOUDS BELOW 12,000 FEET
WITH NO SIGNIFICANT WEATHER AND/OR OBSTRUCTIONS TO VISIBILITY.

WYZ001-181100-
YELLOWSTONE NATIONAL PARK

CITY           SKY/WX    TMP DP  RH WIND       PRES   REMARKS
LK YELLOWSTONE   N/A     24  19  81 CALM      30.13F
W YELLOWSTONE  NOT AVBL

$$
WYZ002>013-054>058-071-098>099-181100-
NORTHERN WYOMING

CITY           SKY/WX    TMP DP  RH WIND       PRES   REMARKS
JACKSON        FAIR      30  27  86 N5        30.08S WCI  25
CODY           FAIR      39  28  65 SW6       30.01F WCI  35
GREYBULL       FAIR      37  26  64 CALM      30.00F
WORLAND        FAIR      35  32  88 CALM      30.00F
SHERIDAN       FAIR      34  29  82 N5        29.99S WCI  30
BUFFALO        FAIR      43  31  62 SW5       30.01F
GILLETTE       FAIR      42  38  85 S9        30.01F
HULETT         FAIR      43  39  87 CALM      30.03F
NEWCASTLE      CLOUDY    43  43 100 N3        30.03F

$$
WYZ014>020-022>026-101>103-181100-
CENTRAL WYOMING

CITY           SKY/WX    TMP DP  RH WIND       PRES   REMARKS
BIG PINEY      FAIR      26  22  84 NW7       30.07F WCI  18
PINEDALE       FAIR      23  21  93 W3        30.07F
DUBOIS         FAIR      30  23  74 NW14      30.06F WCI  20
LANDER         FAIR      36  33  89 NW5       30.03F WCI  32
RIVERTON       FAIR      34  32  92 NW7       30.04F WCI  28
CASPER         CLOUDY    37  36  96 W5        30.03F FOG     WCI  33
DOUGLAS        CLOUDY    37  36  96 NW9       30.02F FOG     WCI  30

$$
WYZ021-027>030-104>119-181100-
SOUTHERN WYOMING

CITY           SKY/WX    TMP DP  RH WIND       PRES   REMARKS
EVANSTON       FAIR      35  30  82 N3        30.09F
FORT BRIDGER   SUNNY     32  32 100 W6        30.11R WCI  26
ROCK SPRINGS   CLOUDY    36  34  92 NW8       30.05F WCI  30
DIXON          CLOUDY    27  25  94 CALM      30.04S
RAWLINS        CLOUDY    32  31  96 N3        30.03F
SARATOGA       CLOUDY    32  30  93 NW7       30.01F WCI  26
LARAMIE        CLOUDY    27  26  96 W6        29.98F FOG     WCI  20
CHEYENNE       MIX PCPN  34  32  92 NW8       29.96F WCI  27
TORRINGTON     RAIN      42  40  92 NW3       29.96F FOG
PINE BLUFFS    CLOUDY    36  36 100 NW12      29.95F WCI  27

$$


USA.gov is the U.S. government's official web portal to all federal, state and local government web resources and services.